Weather observations for the past three days for
Crossville, Crossville Memorial-Whitson Field Airport
Imperial (Metric)
Date Time (cdt) Wind (mph) Vis. (mi.) Weather Sky Cond. Temperature (ºF) Relative Humidity Wind Chill (°F) Heat Index (°F) Pressure Precipitation (in)
Air Dwpt 6 hour altimeter (in) sea level (mb) 1 hr 3 hr 6 hr
Max. Min.
15 17:53 S 7 10.00 Fair CLR 87.1 66 50% 89 30.02 1013.9
15 16:53 SW 8 10.00 Fair CLR 89.1 66 47% 92 30.03 1014.1
15 15:53 Vrbl 7 10.00 Fair CLR 88 64.9 46% 90 30.03 1014.4
15 14:53 Calm 10.00 Mostly Cloudy BKN060 91 64 41% 93 30.05 1015.0
15 13:53 W 8 10.00 Mostly Cloudy BKN070 91 63 39% 92 30.06 1015.4
15 12:53 Vrbl 5 10.00 A Few Clouds FEW060 90 63 91 72 41% 91 30.09 1016.2
15 11:53 W 10 10.00 Partly Cloudy SCT049 88 64.9 46% 90 30.11 1017.1
15 10:53 Vrbl 5 10.00 Fair CLR 86 68 55% 89 30.13 1017.7
15 09:53 NW 3 10.00 Fair CLR 81 69.1 67% 84 30.14 1018.1
15 08:53 Vrbl 5 10.00 Fair CLR 78.1 66.9 69% 80 30.15 1018.4
15 07:53 SW 3 10.00 Fair CLR 73.9 66.9 79% 30.16 1018.8
15 06:53 Calm 10.00 Fair CLR 72 66 73 70 82% 30.14 1018.0
15 05:53 Calm 10.00 Fair CLR 71.1 64.9 81% 30.13 1017.5
15 04:53 Calm 10.00 Fair CLR 72 64.9 79% 30.11 1017.0
15 03:53 Calm 10.00 Partly Cloudy SCT120 71.1 64.9 81% 30.11 1016.9
15 02:53 Calm 10.00 Fair CLR 71.1 64 79% 30.11 1016.9
15 01:53 Calm 10.00 Fair CLR 70 64.9 84% 30.11 1016.9
15 00:53 Calm 10.00 Partly Cloudy SCT110 71.1 64.9 90 71.1 81% 30.13 1017.6
14 23:53 W 6 10.00 Fair CLR 71.1 64 79% 30.14 1017.9
14 22:53 Calm 10.00 Fair CLR 73.9 64 71% 30.13 1017.6
14 21:53 Calm 10.00 Fair CLR 75 62.1 64% 77 30.14 1017.8
14 20:53 Calm 10.00 Fair CLR 78.1 61 56% 80 30.13 1017.8
14 19:53 E 8 G 18 10.00 Mostly Cloudy BKN065 80.1 64 58% 82 30.14 1018.1
14 18:53 N 6 10.00 Fair CLR 90 61 95 89.1 38% 90 30.14 1018.0
14 17:53 NW 8 10.00 Fair CLR 90 55 31% 88 30.12 1017.6
14 16:53 W 12 10.00 Fair CLR 93 55.9 29% 91 30.13 1017.7
14 15:53 NW 10 10.00 Fair CLR 91.9 55 29% 90 30.14 1018.0
14 14:53 SW 7 10.00 Fair CLR 91.9 55.9 30% 90 30.15 1018.5
14 13:53 W 8 10.00 Fair CLR 93 55.9 29% 91 30.17 1019.3
14 12:53 W 12 G 22 10.00 Partly Cloudy SCT070 91 59 91.9 70 34% 90 30.2 1020.1
14 11:53 Calm 10.00 A Few Clouds FEW065 91 57.9 33% 90 30.21 1020.6
14 10:53 Calm 10.00 A Few Clouds FEW065 89.1 60.1 38% 89 30.23 1021.1
14 09:53 Calm 10.00 Fair CLR 87.1 62.1 43% 88 30.23 1021.2
14 08:53 SW 5 10.00 Fair CLR 84 64.9 53% 86 30.24 1021.4
14 07:53 Calm 10.00 Fair CLR 78.1 66 67% 80 30.24 1021.5
14 06:53 Calm 10.00 Fair CLR 70 66 70 64.9 87% 30.22 1021.2
14 05:53 Calm 10.00 Fair CLR 64.9 64 97% 30.22 1021.1
14 04:53 Calm 10.00 Fair CLR 64.9 64 97% 30.21 1020.9
14 03:53 NW 3 10.00 Fair CLR 66 64 93% 30.21 1020.6
14 02:53 Calm 10.00 Fair CLR 66 64.9 96% 30.21 1020.7
14 01:53 Calm 10.00 Fair CLR 66 64 93% 30.22 1021.0
14 00:53 Calm 10.00 Fair CLR 68 64.9 82.9 66.9 90% 30.24 1021.4
13 23:53 Calm 10.00 Fair CLR 69.1 64.9 87% 30.25 1021.8
13 22:53 Calm 10.00 Fair CLR 70 64.9 84% 30.25 1021.8
13 21:53 Calm 10.00 Fair CLR 71.1 64 79% 30.24 1021.6
13 20:53 Calm 10.00 Fair CLR 73 64 74% 30.23 1021.4
13 19:53 Calm 10.00 Fair CLR 78.1 63 60% 80 30.23 1021.3
13 18:53 E 5 10.00 Fair CLR 82 63 93 82 53% 83 30.23 1021.4
13 17:53 E 5 10.00 Partly Cloudy SCT065 84.9 62.1 46% 85 30.22 1021.1
13 16:53 E 7 10.00 Mostly Cloudy BKN065 82 61 49% 83 30.23 1021.6
13 15:53 E 7 10.00 Mostly Cloudy BKN075 BKN090 89.1 61 39% 89 30.23 1021.1
13 14:53 N 5 10.00 Overcast BKN075 OVC100 89.1 59 36% 88 30.23 1021.3
13 13:53 N 7 10.00 Overcast BKN080 BKN095 OVC110 90 57 33% 89 30.24 1021.6
13 12:53 N 10 10.00 Partly Cloudy SCT080 89.1 57 91.9 70 34% 88 30.25 1022.0
13 11:53 NW 8 10.00 Mostly Cloudy SCT065 BKN090 88 60.1 39% 88 30.27 1022.4
13 09:53 S 5 10.00 A Few Clouds FEW045 84.9 63 48% 86 30.28 1022.8
13 08:53 E 5 10.00 Fair CLR 81 66 61% 83 30.29 1023.2
13 07:53 NE 5 10.00 Fair CLR 77 66.9 71% 79 30.28 1023.0
13 06:53 Calm 10.00 Fair CLR 69.1 66 69.1 64.9 90% 30.27 1022.7
13 05:53 Calm 6.00 Fog/Mist CLR 64.9 64.9 100% 30.25 1022.1
13 04:53 Calm 8.00 Fair CLR 64.9 64 97% 30.23 1021.6
13 02:53 Calm 10.00 Fair CLR 66.9 64.9 93% 30.21 1020.5
13 01:53 Calm 10.00 Fair CLR 68 64 87% 30.22 1021.0
13 00:53 Calm 10.00 Fair CLR 69.1 64 84.9 69.1 84% 30.23 1021.2
12 23:53 Calm 10.00 Fair CLR 70 64 82% 30.23 1021.2
12 22:53 N 3 10.00 A Few Clouds FEW100 75 64 69% 77 30.22 1020.6
12 21:53 N 3 10.00 Fair CLR 75.9 63 64% 78 30.21 1020.5
12 20:53 Calm 10.00 Fair CLR 75.9 63 64% 78 30.19 1020.0
12 19:53 N 6 10.00 Partly Cloudy SCT090 81 62.1 53% 82 30.19 1019.9
12 18:53 N 9 10.00 Fair CLR 84.9 61 90 84.9 45% 85 30.17 1019.4
Date Time (cdt) Wind (mph) Vis. (mi.) Weather Sky Cond. Air Dwpt Max. Min. Relative Humidity Wind Chill (°F) Heat Index (°F) altimeter (in) sea level (mb) 1 hr 3 hr 6 hr
6 hour
Temperature (ºF) Pressure Precipitation (in)